GCEMA Weather Reports


time (UTC)temp
F
wind
direction
speed
knots
gust
knots
rain 1hr
in
rain 24hr
in
rain mn
in
humidity
%
barometer
mb
20260906103506 79 359 0.0 0.0 0.00 0.00 0.00 1011.1
20260906103207 78 359 0.0 0.0 0.00 0.00 0.00 1011.1
20260906102907 77 359 0.0 0.0 0.00 0.00 0.00 1011.0
20260906102608 76 359 0.0 0.0 0.00 0.00 0.00 1011.0
20260906102308 77 359 0.0 0.0 0.00 0.00 0.00 1011.0
20260906102006 80 359 0.0 0.0 0.00 0.00 0.00 1011.0
20260906101706 80 359 0.0 0.0 0.00 0.00 0.00 1010.9
20260906101407 80 359 0.0 0.0 0.00 0.00 0.00 1010.9
20260906101107 80 359 0.0 0.0 0.00 0.00 0.00 1010.9
20260906100807 79 359 0.0 0.0 0.00 0.00 0.00 1010.9
20260906100505 78 359 0.0 0.0 0.00 0.00 0.00 1010.8
20260906100205 79 359 0.0 0.0 0.00 0.00 0.00 1010.6
20260906095906 78 359 0.0 0.0 0.00 0.00 0.00 1010.6
20260906095606 77 359 0.0 0.0 0.00 0.00 0.00 1010.5
20260906095307 77 359 0.0 0.0 0.00 0.00 0.00 1010.5
20260906094705 79 359 0.0 0.0 0.00 0.00 0.00 1010.4
20260906094405 79 359 0.0 0.0 0.00 0.00 0.00 1010.4
20260906094106 78 359 0.0 0.0 0.00 0.00 0.00 1010.4
20260906093806 79 359 0.0 0.0 0.00 0.00 0.00 1010.4
20260906093503 78 359 0.0 0.0 0.00 0.00 0.00 1010.3
20260906093204 78 359 0.0 0.0 0.00 0.00 0.00 1010.3
20260906092605 78 359 0.0 0.0 0.00 0.00 0.00 1010.3
20260906092306 77 359 0.0 0.0 0.00 0.00 0.00 1010.3
20260906092003 79 359 0.0 0.0 0.00 0.00 0.00 1010.3
20260906091403 78 359 0.0 0.0 0.00 0.00 0.00 1010.2
20260906090804 80 359 0.0 0.0 0.00 0.00 0.00 1010.3
20260906085903 79 359 0.0 0.0 0.00 0.00 0.00 1010.3
20260906085603 80 359 0.0 0.0 0.00 0.00 0.00 1010.3
20260906085001 79 359 0.0 0.0 0.00 0.00 0.00 1010.2
20260906084701 79 359 0.0 0.0 0.00 0.00 0.00 1010.2
20260906084402 78 359 0.0 0.0 0.00 0.00 0.00 1010.1
20260906083803 79 359 0.0 0.0 0.00 0.00 0.00 1010.1
20260906083500 79 359 0.0 0.0 0.00 0.00 0.00 1010.0
20260906083200 80 359 0.0 0.0 0.00 0.00 0.00 1010.0
20260906082901 80 359 0.0 0.0 0.00 0.00 0.00 1010.0
20260906082601 80 359 0.0 0.0 0.00 0.00 0.00 1009.9
20260906082305 79 359 0.0 0.0 0.00 0.00 0.00 1009.9
20260906081959 79 359 0.0 0.0 0.00 0.00 0.00 1009.9
20260906081400 80 359 0.0 0.0 0.00 0.00 0.00 1009.8
20260906081100 78 359 0.0 0.0 0.00 0.00 0.00 1009.8
20260906080801 79 359 0.0 0.0 0.00 0.00 0.00 1009.8
20260906080458 78 359 0.0 0.0 0.00 0.00 0.00 1009.8
20260906080159 77 359 0.0 0.0 0.00 0.00 0.00 1009.8
20260906075859 78 359 0.0 0.0 0.00 0.00 0.00 1009.8
20260906075559 79 359 0.0 0.0 0.00 0.00 0.00 1009.8
20260906075300 80 359 0.0 0.0 0.00 0.00 0.00 1009.8
20260906074957 80 359 0.0 0.0 0.00 0.00 0.00 1009.8
20260906074658 79 359 0.0 0.0 0.00 0.00 0.00 1009.8
20260906074358 80 359 0.0 0.0 0.00 0.00 0.00 1009.8
20260906074059 80 359 0.0 0.0 0.00 0.00 0.00 1009.8
20260906073759 80 359 0.0 0.0 0.00 0.00 0.00 1009.8
20260906073457 79 359 0.0 0.0 0.00 0.00 0.00 1009.8
20260906073157 80 359 0.0 0.0 0.00 0.00 0.00 1009.9
20260906072558 80 359 0.0 0.0 0.00 0.00 0.00 1009.8
20260906072258 81 359 0.0 0.0 0.00 0.00 0.00 1009.9
20260906071956 80 359 0.0 0.0 0.00 0.00 0.00 1009.9
20260906071656 79 359 0.0 0.0 0.00 0.00 0.00 1009.9
20260906071357 80 359 0.0 0.0 0.00 0.00 0.00 1010.0
20260906071057 80 359 0.0 0.0 0.00 0.00 0.00 1009.9
20260906070757 77 359 0.0 0.0 0.00 0.00 0.00 1009.9
20260906070455 81 359 0.0 0.0 0.00 0.00 0.00 1009.9
20260906065856 79 359 0.0 0.0 0.00 0.00 0.00 1010.0
20260906065556 79 359 0.0 0.0 0.00 0.00 0.00 1010.0
20260906065257 81 359 0.0 0.0 0.00 0.00 0.00 1010.0
20260906064655 81 359 0.0 0.0 0.00 0.00 0.00 1009.9
20260906064355 79 359 0.0 0.0 0.00 0.00 0.00 1009.9
20260906064055 79 359 0.0 0.0 0.00 0.00 0.00 1009.9
20260906063756 78 359 0.0 0.0 0.00 0.00 0.00 1009.9
20260906063453 80 359 0.0 0.0 0.00 0.00 0.00 1010.0
20260906063154 80 359 0.0 0.0 0.00 0.00 0.00 1010.0
20260906062554 81 359 0.0 0.0 0.00 0.00 0.00 1010.0
20260906061952 82 359 0.0 0.0 0.00 0.00 0.00 1010.0
20260906061653 82 359 0.0 0.0 0.00 0.00 0.00 1010.0
20260906061054 82 359 0.0 0.0 0.00 0.00 0.00 1010.1
20260906060754 82 359 0.0 0.0 0.00 0.00 0.00 1010.1
20260906060152 84 359 0.0 0.0 0.00 0.00 0.00 1010.1
20260906055852 84 359 0.0 0.0 0.00 0.00 0.00 1010.2
20260906055553 84 359 0.0 0.0 0.00 0.00 0.00 1010.2
20260906055253 83 359 0.0 0.0 0.00 0.00 0.00 1010.1
20260906054951 84 359 0.0 0.0 0.00 0.00 0.00 1010.1
20260906054651 83 359 0.0 0.0 0.00 0.00 0.00 1010.1
20260906054352 84 359 0.0 0.0 0.00 0.00 0.00 1010.1
20260906054052 84 359 0.0 0.0 0.00 0.00 0.00 1010.1
20260906053752 84 359 0.0 0.0 0.00 0.00 0.00 1010.0
20260906053450 85 359 0.0 0.0 0.00 0.00 0.00 1010.1
20260906053150 85 359 0.0 0.0 0.00 0.00 0.00 1010.0
20260906052851 85 359 0.0 0.0 0.00 0.00 0.00 1010.1
20260906052551 85 359 0.0 0.0 0.00 0.00 0.00 1010.0
20260906052251 85 359 0.0 0.0 0.00 0.00 0.00 1010.1
20260906051949 85 359 0.0 0.0 0.00 0.00 0.00 1010.1
20260906051350 85 359 0.0 0.0 0.00 0.00 0.00 1010.1
20260906051050 85 359 0.0 0.0 0.00 0.00 0.00 1010.1
20260906050448 85 359 0.0 0.0 0.00 0.00 0.00 1010.0
20260906045549 86 359 0.0 0.0 0.00 0.00 0.00 1009.9
20260906045250 86 359 0.0 0.0 0.00 0.00 0.00 1009.8
20260906044947 86 359 0.0 0.0 0.00 0.00 0.00 1009.9
20260906044647 86 359 0.0 0.0 0.00 0.00 0.00 1009.8
20260906044348 86 359 0.0 0.0 0.00 0.00 0.00 1009.8
20260906044048 86 359 0.0 0.0 0.00 0.00 0.00 1009.8
20260906043749 86 359 0.0 0.0 0.00 0.00 0.00 1009.7
20260906043446 85 359 0.0 0.0 0.00 0.00 0.00 1009.7
20260906043147 85 359 0.0 0.0 0.00 0.00 0.00 1009.5
20260906042847 85 359 0.0 0.0 0.00 0.00 0.00 1009.5
20260906042547 85 359 0.0 0.0 0.00 0.00 0.00 1009.5
20260906042248 85 359 0.0 0.0 0.00 0.00 0.00 1009.5
20260906041945 84 359 0.0 0.0 0.00 0.00 0.00 1009.5
20260906041646 84 359 0.0 0.0 0.00 0.00 0.00 1009.4
20260906041346 83 359 0.0 0.0 0.00 0.00 0.00 1009.4
20260906041047 84 359 0.0 0.0 0.00 0.00 0.00 1009.4
20260906040747 84 359 0.0 0.0 0.00 0.00 0.00 1009.3
20260906040445 84 359 0.0 0.0 0.00 0.00 0.00 1009.4
20260906040145 84 359 0.0 0.0 0.00 0.00 0.00 1009.3
20260906035845 82 359 0.0 0.0 0.00 0.00 0.00 1009.4
20260906035546 84 359 0.0 0.0 0.00 0.00 0.00 1009.4
20260906035246 85 359 0.0 0.0 0.00 0.00 0.00 1009.4
20260906034944 84 359 0.0 0.0 0.00 0.00 0.00 1009.4
20260906034644 85 359 0.0 0.0 0.00 0.00 0.00 1009.4
20260906034045 85 359 0.0 0.0 0.00 0.00 0.00 1009.4
20260906033745 85 359 0.0 0.0 0.00 0.00 0.00 1009.4
20260906033442 85 359 0.0 0.0 0.00 0.00 0.00 1009.4
20260906033143 85 359 0.0 0.0 0.00 0.00 0.00 1009.3
20260906032843 85 359 0.0 0.0 0.00 0.00 0.00 1009.2
20260906032544 85 359 0.0 0.0 0.00 0.00 0.00 1009.3
20260906032244 84 359 0.0 0.0 0.00 0.00 0.00 1009.3
20260906031642 86 359 0.0 0.0 0.00 0.00 0.00 1009.3
20260906031342 85 359 0.0 0.0 0.00 0.00 0.00 1009.2
20260906031042 86 359 0.0 0.0 0.00 0.00 0.00 1009.2
20260906030743 86 359 0.0 0.0 0.00 0.00 0.00 1009.1
20260906030441 85 359 0.0 0.0 0.00 0.00 0.00 1009.1
20260906030140 85 359 0.0 0.0 0.00 0.00 0.00 1009.1
20260906025841 86 359 0.0 0.0 0.00 0.00 0.00 1009.1
20260906025541 85 359 0.0 0.0 0.00 0.00 0.00 1009.0
20260906025241 85 359 0.0 0.0 0.00 0.00 0.00 1009.0
20260906024939 86 359 0.0 0.0 0.00 0.00 0.00 1008.8
20260906024639 86 359 0.0 0.0 0.00 0.00 0.00 1008.8
20260906024339 85 359 0.0 0.0 0.00 0.00 0.00 1008.8
20260906024039 85 359 0.0 0.0 0.00 0.00 0.00 1008.8
20260906023740 85 359 0.0 0.0 0.00 0.00 0.00 1008.8
20260906023437 85 359 0.0 0.0 0.00 0.00 0.00 1008.8
20260906023137 86 359 0.0 0.0 0.00 0.00 0.00 1008.8
20260906022838 87 359 0.0 0.0 0.00 0.00 0.00 1008.8
20260906022538 86 359 0.0 0.0 0.00 0.00 0.00 1008.9
20260906022238 86 359 0.0 0.0 0.00 0.00 0.00 1008.9
20260906021936 85 359 0.0 0.0 0.00 0.00 0.00 1008.9
20260906021636 83 359 0.0 0.0 0.00 0.00 0.00 1008.8
20260906021336 85 359 0.0 0.0 0.00 0.00 0.00 1008.6
20260906021037 85 359 0.0 0.0 0.00 0.00 0.00 1008.5
20260906020737 85 359 0.0 0.0 0.00 0.00 0.00 1008.6
20260906020135 86 359 0.0 0.0 0.00 0.00 0.00 1008.5
20260906015835 86 359 0.0 0.0 0.00 0.00 0.00 1008.4
20260906015535 88 359 0.0 0.0 0.00 0.00 0.00 1008.3
20260906014933 90 359 0.0 0.0 0.00 0.00 0.00 1008.3
20260906014633 91 359 0.0 0.0 0.00 0.00 0.00 1008.2
20260906014333 92 359 0.0 0.0 0.00 0.00 0.00 1008.1
20260906014034 91 359 0.0 0.0 0.00 0.00 0.00 1008.0
20260906013734 92 359 0.0 0.0 0.00 0.00 0.00 1007.9
20260906013431 92 359 0.0 0.0 0.00 0.00 0.00 1007.8
20260906012832 91 359 0.0 0.0 0.00 0.00 0.00 1007.7
20260906012532 90 359 0.0 0.0 0.00 0.00 0.00 1007.7
20260906012233 88 359 0.0 0.0 0.00 0.00 0.00 1007.7
20260906011930 87 359 0.0 0.0 0.00 0.00 0.00 1007.7
20260906011630 85 359 0.0 0.0 0.00 0.00 0.00 1007.7
20260906011331 85 359 0.0 0.0 0.00 0.00 0.00 1007.6
20260906011031 84 359 0.0 0.0 0.00 0.00 0.00 1007.9
20260906010731 89 359 0.0 0.0 0.00 0.00 0.00 1007.9
20260906010428 90 359 0.0 0.0 0.00 0.00 0.00 1007.8
20260906005829 94 359 0.0 0.0 0.00 0.00 0.00 1007.5
20260906005529 95 359 0.0 0.0 0.00 0.00 0.00 1007.5
20260906005230 95 359 0.0 0.0 0.00 0.00 0.00 1007.4
20260906004927 95 359 0.0 0.0 0.00 0.00 0.00 1007.3
20260906004627 95 359 0.0 0.0 0.00 0.00 0.00 1007.4
20260906004327 95 359 0.0 0.0 0.00 0.00 0.00 1007.4
20260906004028 95 359 0.0 0.0 0.00 0.00 0.00 1007.4
20260906003728 95 359 0.0 0.0 0.00 0.00 0.00 1007.4
20260906003426 95 359 0.0 0.0 0.00 0.00 0.00 1007.4
20260906001924 96 359 0.0 0.0 0.00 0.00 0.00 1007.5
20260906001025 96 359 0.0 0.0 0.00 0.00 0.00 1007.6
20260906000422 96 359 0.0 0.0 0.00 0.00 0.00 1007.6
20260905235823 96 359 0.0 0.0 0.00 0.00 0.00 1007.7
20260905235523 96 359 0.0 0.0 0.00 0.00 0.00 1007.7
20260905235223 97 359 0.0 0.0 0.00 0.00 0.00 1007.7
20260905234921 97 359 0.0 0.0 0.00 0.00 0.00 1007.6
20260905234621 97 359 0.0 0.0 0.00 0.00 0.00 1007.6
20260905234321 97 359 0.0 0.0 0.00 0.00 0.00 1007.6
20260905234022 97 359 0.0 0.0 0.00 0.00 0.00 1007.5
20260905233722 97 359 0.0 0.0 0.00 0.00 0.00 1007.6
20260905233419 97 359 0.0 0.0 0.00 0.00 0.00 1007.5
20260905232820 97 359 0.0 0.0 0.00 0.00 0.00 1007.5
20260905232520 97 359 0.0 0.0 0.00 0.00 0.00 1007.5
20260905232220 98 359 0.0 0.0 0.00 0.00 0.00 1007.4
20260905231918 97 359 0.0 0.0 0.00 0.00 0.00 1007.5
20260905231618 98 359 0.0 0.0 0.00 0.00 0.00 1007.4
20260905231318 98 359 0.0 0.0 0.00 0.00 0.00 1007.4
20260905231019 97 359 0.0 0.0 0.00 0.00 0.00 1007.4
20260905230719 98 359 0.0 0.0 0.00 0.00 0.00 1007.3
20260905230416 98 359 0.0 0.0 0.00 0.00 0.00 1007.2
20260905225817 99 359 0.0 0.0 0.00 0.00 0.00 1007.2
20260905225517 99 359 0.0 0.0 0.00 0.00 0.00 1007.2
20260905225217 98 359 0.0 0.0 0.00 0.00 0.00 1007.1
20260905224915 99 359 0.0 0.0 0.00 0.00 0.00 1007.1
20260905224615 100 359 0.0 0.0 0.00 0.00 0.00 1007.1
20260905224315 99 359 0.0 0.0 0.00 0.00 0.00 1007.1
20260905224015 99 359 0.0 0.0 0.00 0.00 0.00 1007.2
20260905223716 97 359 0.0 0.0 0.00 0.00 0.00 1007.2
20260905223413 97 359 0.0 0.0 0.00 0.00 0.00 1007.1
20260905223113 98 359 0.0 0.0 0.00 0.00 0.00 1007.1
20260905222814 99 359 0.0 0.0 0.00 0.00 0.00 1007.1
20260905222514 99 359 0.0 0.0 0.00 0.00 0.00 1007.1
20260905221912 99 359 0.0 0.0 0.00 0.00 0.00 1007.1
20260905221612 100 359 0.0 0.0 0.00 0.00 0.00 1007.1
20260905221312 99 359 0.0 0.0 0.00 0.00 0.00 1007.1
20260905221012 99 359 0.0 0.0 0.00 0.00 0.00 1007.0
20260905220713 99 359 0.0 0.0 0.00 0.00 0.00 1006.9
20260905220410 99 359 0.0 0.0 0.00 0.00 0.00 1006.9
20260905220110 99 359 0.0 0.0 0.00 0.00 0.00 1006.9
20260905215812 97 359 0.0 0.0 0.00 0.00 0.00 1006.9
20260905215511 98 359 0.0 0.0 0.00 0.00 0.00 1007.0
20260905215211 99 359 0.0 0.0 0.00 0.00 0.00 1006.9
20260905214908 100 359 0.0 0.0 0.00 0.00 0.00 1007.0
20260905214609 99 359 0.0 0.0 0.00 0.00 0.00 1007.0
20260905214309 98 359 0.0 0.0 0.00 0.00 0.00 1007.1
20260905214009 98 359 0.0 0.0 0.00 0.00 0.00 1007.1
20260905213709 98 359 0.0 0.0 0.00 0.00 0.00 1007.1
20260905213407 99 359 0.0 0.0 0.00 0.00 0.00 1007.1
20260905213107 100 359 0.0 0.0 0.00 0.00 0.00 1007.0
20260905212807 99 359 0.0 0.0 0.00 0.00 0.00 1007.0
20260905212507 98 359 0.0 0.0 0.00 0.00 0.00 1007.0
20260905212208 99 359 0.0 0.0 0.00 0.00 0.00 1007.0
20260905211905 99 359 0.0 0.0 0.00 0.00 0.00 1007.0
20260905211605 95 359 0.0 0.0 0.00 0.00 0.00 1007.0
20260905211305 97 359 0.0 0.0 0.00 0.00 0.00 1007.0
20260905211006 98 359 0.0 0.0 0.00 0.00 0.00 1007.1
20260905210706 98 359 0.0 0.0 0.00 0.00 0.00 1007.0
20260905210103 98 359 0.0 0.0 0.00 0.00 0.00 1007.2
20260905205504 97 359 0.0 0.0 0.00 0.00 0.00 1007.2
20260905205204 97 359 0.0 0.0 0.00 0.00 0.00 1007.2
20260905204901 95 359 0.0 0.0 0.00 0.00 0.00 1007.3
20260905204602 95 359 0.0 0.0 0.00 0.00 0.00 1007.4
20260905204302 96 359 0.0 0.0 0.00 0.00 0.00 1007.5
20260905204002 96 359 0.0 0.0 0.00 0.00 0.00 1007.5
20260905203702 98 359 0.0 0.0 0.00 0.00 0.00 1007.5
20260905203400 96 359 0.0 0.0 0.00 0.00 0.00 1007.6
20260905203100 98 359 0.0 0.0 0.00 0.00 0.00 1007.7
20260905202800 95 359 0.0 0.0 0.00 0.00 0.00 1007.6
20260905202501 95 359 0.0 0.0 0.00 0.00 0.00 1007.6
20260905202201 97 359 0.0 0.0 0.00 0.00 0.00 1007.6
20260905201858 95 359 0.0 0.0 0.00 0.00 0.00 1007.8
20260905201558 95 359 0.0 0.0 0.00 0.00 0.00 1007.9
20260905201259 96 359 0.0 0.0 0.00 0.00 0.00 1007.9
20260905200659 96 359 0.0 0.0 0.00 0.00 0.00 1007.8
20260905200357 95 359 0.0 0.0 0.00 0.00 0.00 1007.9
20260905195757 99 359 0.0 0.0 0.00 0.00 0.00 1007.8
20260905195457 97 359 0.0 0.0 0.00 0.00 0.00 1007.9
20260905195158 95 359 0.0 0.0 0.00 0.00 0.00 1007.9
20260905194855 96 359 0.0 0.0 0.00 0.00 0.00 1007.9
20260905194555 96 359 0.0 0.0 0.00 0.00 0.00 1007.9
20260905194256 100 359 0.0 0.0 0.00 0.00 0.00 1007.9
20260905193956 98 359 0.0 0.0 0.00 0.00 0.00 1008.0
20260905193656 98 359 0.0 0.0 0.00 0.00 0.00 1008.1
20260905193354 98 359 0.0 0.0 0.00 0.00 0.00 1008.1
20260905193054 98 359 0.0 0.0 0.00 0.00 0.00 1008.1
20260905192455 97 359 0.0 0.0 0.00 0.00 0.00 1008.2
20260905192155 98 359 0.0 0.0 0.00 0.00 0.00 1008.3
20260905191852 96 359 0.0 0.0 0.00 0.00 0.00 1008.3
20260905191553 97 359 0.0 0.0 0.00 0.00 0.00 1008.4
20260905190953 101 359 0.0 0.0 0.00 0.00 0.00 1008.5
20260905190351 100 359 0.0 0.0 0.00 0.00 0.00 1008.6
20260905190051 97 359 0.0 0.0 0.00 0.00 0.00 1008.6
20260905185752 99 359 0.0 0.0 0.00 0.00 0.00 1008.7
20260905185452 99 359 0.0 0.0 0.00 0.00 0.00 1008.7
20260905185152 100 359 0.0 0.0 0.00 0.00 0.00 1008.8
20260905184850 100 359 0.0 0.0 0.00 0.00 0.00 1008.8
20260905184550 99 359 0.0 0.0 0.00 0.00 0.00 1008.9
20260905184250 98 359 0.0 0.0 0.00 0.00 0.00 1009.0
20260905183951 99 359 0.0 0.0 0.00 0.00 0.00 1009.1
20260905183651 96 359 0.0 0.0 0.00 0.00 0.00 1009.2
20260905183349 101 359 0.0 0.0 0.00 0.00 0.00 1009.3
20260905183049 102 359 0.0 0.0 0.00 0.00 0.00 1009.3
20260905182749 101 359 0.0 0.0 0.00 0.00 0.00 1009.3
20260905182150 101 359 0.0 0.0 0.00 0.00 0.00 1009.4
20260905181847 100 359 0.0 0.0 0.00 0.00 0.00 1009.4
20260905181625 100 359 0.0 0.0 0.00 0.00 0.00 1009.4
20260905181548 100 359 0.0 0.0 0.00 0.00 0.00 1009.4
20260905181248 100 359 0.0 0.0 0.00 0.00 0.00 1009.4
20260905180948 100 359 0.0 0.0 0.00 0.00 0.00 1009.5
20260905180046 99 359 0.0 0.0 0.00 0.00 0.00 1009.6
20260905175746 100 359 0.0 0.0 0.00 0.00 0.00 1009.6
20260905175447 99 359 0.0 0.0 0.00 0.00 0.00 1009.6
20260905175147 99 359 0.0 0.0 0.00 0.00 0.00 1009.7
20260905174845 99 359 0.0 0.0 0.00 0.00 0.00 1009.7
20260905174545 99 359 0.0 0.0 0.00 0.00 0.00 1009.7
20260905174245 99 359 0.0 0.0 0.00 0.00 0.00 1009.8
20260905173946 99 359 0.0 0.0 0.00 0.00 0.00 1009.9
20260905173646 99 359 0.0 0.0 0.00 0.00 0.00 1009.9
20260905173343 98 359 0.0 0.0 0.00 0.00 0.00 1009.9
20260905173044 97 359 0.0 0.0 0.00 0.00 0.00 1009.9
20260905172744 96 359 0.0 0.0 0.00 0.00 0.00 1009.9
20260905172444 96 359 0.0 0.0 0.00 0.00 0.00 1010.0
20260905172145 95 359 0.0 0.0 0.00 0.00 0.00 1010.0
20260905171842 94 359 0.0 0.0 0.00 0.00 0.00 1010.1
20260905171542 92 359 0.0 0.0 0.00 0.00 0.00 1010.2
20260905171243 95 359 0.0 0.0 0.00 0.00 0.00 1010.2
20260905170943 96 359 0.0 0.0 0.00 0.00 0.00 1010.3
20260905170643 95 359 0.0 0.0 0.00 0.00 0.00 1010.3
20260905170341 95 359 0.0 0.0 0.00 0.00 0.00 1010.3
20260905170041 97 359 0.0 0.0 0.00 0.00 0.00 1010.4
20260905165741 97 359 0.0 0.0 0.00 0.00 0.00 1010.5
20260905165442 97 359 0.0 0.0 0.00 0.00 0.00 1010.6
20260905164839 97 359 0.0 0.0 0.00 0.00 0.00 1010.8
20260905164540 97 359 0.0 0.0 0.00 0.00 0.00 1010.8
20260905164240 96 359 0.0 0.0 0.00 0.00 0.00 1010.8
20260905163940 96 359 0.0 0.0 0.00 0.00 0.00 1010.8
20260905162739 95 359 0.0 0.0 0.00 0.00 0.00 1010.6
20260905162439 95 359 0.0 0.0 0.00 0.00 0.00 1010.8
20260905162139 95 359 0.0 0.0 0.00 0.00 0.00 1010.6
20260905161837 95 359 0.0 0.0 0.00 0.00 0.00 1010.6
20260905161537 95 359 0.0 0.0 0.00 0.00 0.00 1010.6
20260905161238 94 359 0.0 0.0 0.00 0.00 0.00 1010.6
20260905160938 95 359 0.0 0.0 0.00 0.00 0.00 1010.6
20260905160638 94 359 0.0 0.0 0.00 0.00 0.00 1010.6
20260905160336 95 359 0.0 0.0 0.00 0.00 0.00 1010.8
20260905160036 94 359 0.0 0.0 0.00 0.00 0.00 1010.8
20260905155736 94 359 0.0 0.0 0.00 0.00 0.00 1010.8
20260905155437 94 359 0.0 0.0 0.00 0.00 0.00 1010.9
20260905155137 93 359 0.0 0.0 0.00 0.00 0.00 1011.0
20260905154834 93 359 0.0 0.0 0.00 0.00 0.00 1011.1
20260905153935 93 359 0.0 0.0 0.00 0.00 0.00 1011.3
20260905153636 92 359 0.0 0.0 0.00 0.00 0.00 1011.2
20260905153333 92 359 0.0 0.0 0.00 0.00 0.00 1011.2
20260905153033 91 359 0.0 0.0 0.00 0.00 0.00 1011.1
20260905152734 91 359 0.0 0.0 0.00 0.00 0.00 1011.1
20260905151532 90 359 0.0 0.0 0.00 0.00 0.00 1011.1
20260905150932 91 359 0.0 0.0 0.00 0.00 0.00 1011.1
20260905150633 91 359 0.0 0.0 0.00 0.00 0.00 1011.1
20260905150331 91 359 0.0 0.0 0.00 0.00 0.00 1011.1
20260905150031 91 359 0.0 0.0 0.00 0.00 0.00 1011.1
20260905145431 90 359 0.0 0.0 0.00 0.00 0.00 1011.1
20260905145131 90 359 0.0 0.0 0.00 0.00 0.00 1011.1
20260905144829 91 359 0.0 0.0 0.00 0.00 0.00 1011.1
20260905144529 90 359 0.0 0.0 0.00 0.00 0.00 1011.1
20260905143930 89 359 0.0 0.0 0.00 0.00 0.00 1011.1
20260905143328 88 359 0.0 0.0 0.00 0.00 0.00 1011.1
20260905143028 88 359 0.0 0.0 0.00 0.00 0.00 1011.2
20260905142428 88 359 0.0 0.0 0.00 0.00 0.00 1011.2
20260905141826 87 359 0.0 0.0 0.00 0.00 0.00 1011.2
20260905141527 87 359 0.0 0.0 0.00 0.00 0.00 1011.2
20260905140927 87 359 0.0 0.0 0.00 0.00 0.00 1011.3
20260905140627 88 359 0.0 0.0 0.00 0.00 0.00 1011.3
20260905140325 88 359 0.0 0.0 0.00 0.00 0.00 1011.3
20260905140025 87 359 0.0 0.0 0.00 0.00 0.00 1011.3
20260905135426 88 359 0.0 0.0 0.00 0.00 0.00 1011.3
20260905135126 87 359 0.0 0.0 0.00 0.00 0.00 1011.2
20260905134823 87 359 0.0 0.0 0.00 0.00 0.00 1011.3
20260905134524 87 359 0.0 0.0 0.00 0.00 0.00 1011.3
20260905134224 86 359 0.0 0.0 0.00 0.00 0.00 1011.3
20260905133924 87 359 0.0 0.0 0.00 0.00 0.00 1011.3
20260905133322 86 359 0.0 0.0 0.00 0.00 0.00 1011.3
20260905133023 86 359 0.0 0.0 0.00 0.00 0.00 1011.4
20260905132423 85 359 0.0 0.0 0.00 0.00 0.00 1011.4
20260905132123 85 359 0.0 0.0 0.00 0.00 0.00 1011.3
20260905131821 87 359 0.0 0.0 0.00 0.00 0.00 1011.4
20260905131521 88 359 0.0 0.0 0.00 0.00 0.00 1010.9
20260905131222 88 359 0.0 0.0 0.00 0.00 0.00 1010.9
20260905130622 88 359 0.0 0.0 0.00 0.00 0.00 1010.9
20260905130320 88 359 0.0 0.0 0.00 0.00 0.00 1010.9
20260905130020 87 359 0.0 0.0 0.00 0.00 0.00 1010.9
20260905125720 87 359 0.0 0.0 0.00 0.00 0.00 1010.9
20260905125420 86 359 0.0 0.0 0.00 0.00 0.00 1010.9
20260905125121 86 359 0.0 0.0 0.00 0.00 0.00 1010.8
20260905124818 85 359 0.0 0.0 0.00 0.00 0.00 1010.8
20260905124219 85 359 0.0 0.0 0.00 0.00 0.00 1010.8
20260905123620 85 359 0.0 0.0 0.00 0.00 0.00 1010.8
20260905123018 86 359 0.0 0.0 0.00 0.00 0.00 1010.6
20260905122718 86 359 0.0 0.0 0.00 0.00 0.00 1010.6
20260905122418 86 359 0.0 0.0 0.00 0.00 0.00 1010.6
20260905122119 86 359 0.0 0.0 0.00 0.00 0.00 1010.6
20260905121517 85 359 0.0 0.0 0.00 0.00 0.00 1010.5
20260905121217 85 359 0.0 0.0 0.00 0.00 0.00 1010.6
20260905120917 85 359 0.0 0.0 0.00 0.00 0.00 1010.6
20260905120618 85 359 0.0 0.0 0.00 0.00 0.00 1010.6
20260905120315 85 359 0.0 0.0 0.00 0.00 0.00 1010.5
20260905115416 85 359 0.0 0.0 0.00 0.00 0.00 1010.5
20260905115117 85 359 0.0 0.0 0.00 0.00 0.00 1010.4
20260905114814 85 359 0.0 0.0 0.00 0.00 0.00 1010.3
20260905114514 85 359 0.0 0.0 0.00 0.00 0.00 1010.4
20260905114215 85 359 0.0 0.0 0.00 0.00 0.00 1010.4
20260905113915 85 359 0.0 0.0 0.00 0.00 0.00 1010.4
20260905113013 85 359 0.0 0.0 0.00 0.00 0.00 1010.3
20260905112414 85 359 0.0 0.0 0.00 0.00 0.00 1010.2
20260905112114 85 359 0.0 0.0 0.00 0.00 0.00 1010.2
20260905111812 86 359 0.0 0.0 0.00 0.00 0.00 1010.2
20260905111512 86 359 0.0 0.0 0.00 0.00 0.00 1010.1
20260905111212 86 359 0.0 0.0 0.00 0.00 0.00 1010.1
20260905110913 86 359 0.0 0.0 0.00 0.00 0.00 1010.1
20260905110310 86 359 0.0 0.0 0.00 0.00 0.00 1010.0
20260905110011 85 359 0.0 0.0 0.00 0.00 0.00 1010.0
20260905105411 85 359 0.0 0.0 0.00 0.00 0.00 1009.9
20260905105112 85 359 0.0 0.0 0.00 0.00 0.00 1009.9
20260905104809 85 359 0.0 0.0 0.00 0.00 0.00 1009.9
20260905104510 85 359 0.0 0.0 0.00 0.00 0.00 1009.8
20260905104210 86 359 0.0 0.0 0.00 0.00 0.00 1009.9
20260905103910 86 359 0.0 0.0 0.00 0.00 0.00 1009.8